Caslav, Czech Republic

1:37 PM CEST on June 27, 2017 (GMT +0200)
Caslav

Weather History for LKCV - July, 2013

Change the Weather History Date:

Sunday, July 7, 2013

  Actual Average Record
Temperature  
Mean Temperature 66 °F -  
Max Temperature 77 °F - - ()
Min Temperature 55 °F - - ()
Cooling Degree Days 1    
Growing Degree Days 16 (Base 50)    
Moisture  
Dew Point 56 °F    
Average Humidity 70    
Maximum Humidity 100    
Minimum Humidity 41    
Precipitation  
Precipitation 0.00 in - - ()
Sea Level Pressure  
Sea Level Pressure 30.37 in    
Wind  
Wind Speed 2 mph ()    
Max Wind Speed 6 mph    
Max Gust Speed -    
Visibility 6.2 miles    
Events      
T = Trace of Precipitation, MM = Missing Value Source: Averaged Metar Reports

Daily Weather History Graph

Daily Weather History Graph

Search for Another Location

Airport or City:

Trip Planner

Search our weather history database for the weather conditions in past years. The results will help you decide how hot, cold, wet, or windy it might be!

Date:

Astronomy

Jul. 07, 2013 Rise Set
Actual Time 4:58 AM CEST 9:07 PM CEST
Civil Twilight 4:15 AM CEST 9:51 PM CEST
Nautical Twilight 3:13 AM CEST 10:52 PM CEST
Astronomical Twilight 1:35 AM CEST 12:31 AM CEST
Moon 4:25 AM CEST (7/7) 8:11 PM CEST (7/7)
Length of Visible Light 17h 36m
Length of Day
16h 09m
Waning Crescent, 1% of the Moon is Illuminated
Jul 7
Waning Crescent
Jul 8
New
Jul 16
First Quarter
Jul 22
Full
Jul 29
Last Quarter

Hourly Weather History & Observations

Time (CEST) Temp. Dew Point Humidity Pressure Visibility Wind Dir Wind Speed Gust Speed Precip Events Conditions
12:00 AM 62.6 °F 59.0 °F 88% 30.39 in - SSW 2.3 mph - N/A   Clear
1:00 AM 60.8 °F 59.0 °F 94% 30.39 in - Calm Calm - N/A   Clear
2:00 AM 59.0 °F 57.2 °F 94% 30.39 in - West 4.6 mph - N/A   Clear
3:00 AM 59.0 °F 57.2 °F 94% 30.36 in - Calm Calm - N/A   Clear
4:00 AM 57.2 °F 55.4 °F 94% 30.36 in - Variable 1.2 mph - N/A   Clear
5:00 AM 55.4 °F 53.6 °F 94% 30.36 in - West 2.3 mph - N/A   Clear
6:00 AM 55.4 °F 55.4 °F 100% 30.39 in - Calm Calm - N/A   Clear
7:00 AM 59.0 °F 57.2 °F 94% 30.39 in - Calm Calm - N/A   Clear
8:00 AM 62.6 °F 59.0 °F 88% 30.39 in - WNW 3.5 mph - N/A   Clear
9:00 AM 66.2 °F 59.0 °F 78% 30.39 in - Variable 3.5 mph - N/A   Clear
10:00 AM 69.8 °F 60.8 °F 73% 30.39 in - NNW 3.5 mph - N/A   Clear
11:00 AM 73.4 °F 57.2 °F 57% 30.39 in 6.2 mi NE 4.6 mph - N/A   Mostly Cloudy
12:00 PM 71.6 °F 59.0 °F 64% 30.39 in 6.2 mi North 4.6 mph - N/A   Mostly Cloudy
1:00 PM 75.2 °F 53.6 °F 47% 30.39 in 6.2 mi NE 3.5 mph - N/A   Mostly Cloudy
2:00 PM 73.4 °F 57.2 °F 57% 30.39 in 6.2 mi Variable 5.8 mph - N/A   Mostly Cloudy
3:00 PM 77.0 °F 55.4 °F 47% 30.36 in 6.2 mi North 5.8 mph - N/A   Mostly Cloudy
4:00 PM 75.2 °F 51.8 °F 44% 30.36 in - Variable 4.6 mph - N/A   Clear
5:00 PM 77.0 °F 53.6 °F 44% 30.36 in - North 5.8 mph - N/A   Clear
6:00 PM 77.0 °F 51.8 °F 41% 30.33 in - NE 5.8 mph - N/A   Clear
7:00 PM 75.2 °F 53.6 °F 47% 30.33 in - ENE 5.8 mph - N/A   Clear
8:00 PM 73.4 °F 55.4 °F 53% 30.33 in - NE 4.6 mph - N/A   Clear
9:00 PM 69.8 °F 55.4 °F 60% 30.36 in - NE 3.5 mph - N/A   Clear
10:00 PM 68.0 °F 53.6 °F 60% 30.36 in - ENE 3.5 mph - N/A   Clear
11:00 PM 66.2 °F 57.2 °F 73% 30.39 in - Calm Calm - N/A   Clear